Location:  
MeteoStar

Sort by weather type Sort by elevation Sort by visibility Sort from west to east north Sort from north to south Alphabetically Sort from strongest wind speed Sort from lowest to highest pressure Sort from highest to lowest dew point temperature Sort coolest temperatures to warmest Sort warm temperatures to coolest
 Metric

Current Observations for United Kingdom sorted by weather type

Tulloch Bridge08:00ZLight Rain58 5581019.2SSW 11 58777
Loch Glascanoch08:00ZLight Rain54 5321016.7W 13 50869
Tiree07:50ZLight Rain57 571.121020.1WSW 19 5739
Benbecula07:50ZLight Rain55 5441018.1W 11 5519
Glasgow Airport07:50ZLight Rain59 5941021.1WSW 20 5926
Eglinton / Londonderr07:50ZLight Rain63 5961024.1SW 13 6329
Lossiemouth07:50ZDrizzle57 550.871016.1NW 10 5742
Lough Fea08:00ZLight Drizzle59 5831025.1W 16 Gusting to 25 59738
Castlederg08:00ZLight Drizzle61 6071025.3WSW 10 61167
Eskdalemuir08:00ZLight Drizzle56 551.871024.9S 9 56793
Prestwick Airport07:50ZLight Drizzle61 5941023.1SW 18 6165
Exeter Airport07:50ZFog Nearby41 411.51034.2N 1 4198
Kirkwall Airport07:50ZShowers nearby54 5251014.1W 15 5068
Carlisle07:50ZShowers nearby59 5551025.1SW 13 5985
Culdrose07:50ZFog52 52151033.3E 6 50255
Warcop Range08:00ZMist56 5571026W 16 Gusting to 26 56744
Spadeadam08:00ZMist56 5531024.4WSW 23 Gusting to 36 56935
Dundrennan08:00ZMist57 5661025.1SW 23 Gusting to 30 57374
Prestwick Rnas08:00ZMist60 582.751023SW 20 Gusting to 31 6085
South Uist Range08:00ZMist55 5441018.5W 12 5532
Spadeadam07:50ZMist55 551.251024.2WSW 23 Gusting to 34 551066
High Wicombe Hqstc08:00ZHaze54 46201033.3W 4 53669
Lerwick08:00ZCloudy51 47201010.4W 20 Gusting to 29 45269
Aberdeen / Dyce07:50ZCloudy63 55251016.1WSW 6 63213
Belfast / Harbour07:50ZCloudy61 5971025.1SSW 11 6116
Topcliffe Royal Air Force Base 07:50ZMostly Cloudy57 52121027.1WSW 17 5791
Linton-On-Ouse07:50ZMostly Cloudy59 52151027.1SW 10 5952
Leeming07:50ZMostly Cloudy57 52201027.1SW 9 57131
Boulmer07:50ZMostly Cloudy61 57181021.1SW 18 6175
Kinloss07:50ZMostly Cloudy61 57101016.1SW 10 6122
Edinburgh Airport07:50ZMostly Cloudy63 5941021.1SW 14 63134
Inverness / Dalcross07:50ZMostly Cloudy59 57251016.1WSW 9 5929
Sumburgh Cape 08:20ZMostly Cloudy52 4651012.1WNW 17 4716
Valley07:50ZMostly Cloudy59 55121030.1SSW 22 593
Shawbury07:50ZMostly Cloudy55 52201030.2WSW 14 55249
Pembrey Sands07:50ZMostly Cloudy59 54151033.1SW 11 599
Tees-Side07:50ZMostly Cloudy59 5491026.1SW 19 59121
Newcastle 07:50ZMostly Cloudy63 5791023.1SW 10 63265
Isle Of Man / Ronaldsway Airport07:50ZMostly Cloudy59 5791027.1WSW 15 Gusting to 25 5955
Blackpool Airport07:50ZMostly Cloudy59 5551029.1SW 18 5932
Belfast / Aldergrove Airport07:50ZMostly Cloudy59 5771026.1SW 11 59265
Leuchars07:50ZPartly Cloudy61 57301018.1W 19 6139
Dundee / Riverside07:50ZPartly Cloudy61 5741018.1W 11 6113
Wick07:50ZPartly Cloudy55 52251015.1WNW 15 55127
Hawarden07:50ZPartly Cloudy59 52251029.1SW 19 5932
Leeds And Bradford07:50ZPartly Cloudy57 5271027.2WSW 19 57682
Humberside07:50ZPartly Cloudy55 4851028.1SSW 18 55101
Liverpool Airport 07:50ZPartly Cloudy59 5471030.1S 7 5985
Manchester Airport07:50ZPartly Cloudy55 5061030.2S 7 55226
Camborne08:00ZClear53 51201033.3ENE 2 53285
Larkhill08:00ZClear44 41151033.9ENE 2 44433
Strathallan08:00ZClear61 6041019.4WSW 17 Gusting to 29 61114
Aviemore08:00ZClear57 56151017.2SW 5 57721
Altnaharra08:00ZClear54 51301016.2WSW 12 50265
Holbeach07:50ZClear54 46251030.1WSW 16 509
Leconfield07:50ZClear55 48151027.1SW 13 5519
Cosford Royal Air Force Base07:50ZClear54 4891032.2SSW 6 52272
Fairford Royal Air Force Base07:56ZClear48 44301033WSW 5 46285
Mildenhall Royal Air Force Base07:56ZClear54 50201032.0SW 8 5232
Lakenheath Royal Air Force Base07:56ZClear55 44201031.8SW 10 5532
Stansted Airport07:50ZClear52 450.871033.3WSW 6 50347
Stornoway07:50ZClear54 52251016.1W 11 5129
Scatsa / Shetland Island07:50ZClear52 4341010.1W 18 4772
Lydd Airport 07:50ZClear52 50101034.1NNW 3 529
London / Heathrow Airport07:50ZClear50 46101033.2SSW 4 4978
London City Airport07:50ZClear54 46201033.1WSW 7 5216
Luton Airport 07:50ZClear54 4671032.3SW 6 52524
Bristol / Lulsgate 07:50ZClear52 4671033.3SW 6 50620
Cardiff-Wales Airport07:50ZClear52 4871033.2WNW 5 51219
Staverton Private 07:50ZClear54 4861032.1WSW 4 5395


Atlantic
Tropical Watch